Regional Weather Roundup
Issued by NWS Kansas City/Pleasant Hill, MO

Home | Current Version | Previous Version | Graphics & Text | Print | Product List | Glossary Off
Versions: 1 2 3 4 5 6 7 8 9 10 11 12 13 14 15 16 17 18 19 20 21 22 23 24 25 26 27 28 29 30 31 32 33 34 35 36 37 38 39 40 41 42 43 44 45 46 47 48

000
ASUS43 KEAX 281310
RWREAX

WEATHER ROUNDUP FOR EASTERN KANSAS AND NORTHWEST MISSOURI
NATIONAL WEATHER SERVICE KANSAS CITY/PLEASANT HILL MO
800 AM CDT TUE JUL 28 2015

KSZ040-057-103>105-MOZ028-029-037-043-281400-
...KANSAS CITY METROPOLITAN AREA...

CITY           SKY/WX    TMP DP  RH WIND       PRES   REMARKS
K.C. INTL      MOSUNNY   82  75  79 S13       29.89R
K.C. DOWNTOWN  SUNNY     84  75  74 S9        29.87S HX  92
LEES SUMMIT    SUNNY     82  74  76 S12G18    29.91S
OLATHE - IXD   SUNNY     81  75  82 S12       29.90S
OLATHE - OJC   SUNNY     80  74  81 S13       29.90S
LAWRENCE       SUNNY     81  74  79 MISG      29.87S

$$

MOZ001>008-011>017-020>025-030>033-038>040-044>046-053-054-281400-
...NORTHERN AND CENTRAL MISSOURI...

CITY           SKY/WX    TMP DP  RH WIND       PRES   REMARKS
ST. JOSEPH     SUNNY     80  75  84 S8        29.86R
MOSBY          SUNNY     79  75  89 SE5       29.89R
WHITEMAN AFB   SUNNY     81  76  85 S10       29.93R
CLINTON        SUNNY     82  77  83 S5        29.95R HX  91
SEDALIA        SUNNY     82  75  79 S10       29.96R
WARSAW         NOT AVBL
CHILLICOTHE    NOT AVBL
KIRKSVILLE     SUNNY     76  72  87 S6        29.94R

$$

MOZ041-047>049-056>058-063>065-088>090-097-281400-
...EASTERN AND SOUTHERN MISSOURI...

CITY           SKY/WX    TMP DP  RH WIND       PRES   REMARKS
ST. LOUIS INTL PTSUNNY   82  73  74 VRB5      29.97R
SPIRIT OF STL  MOSUNNY   78  75  90 CALM      29.95R
COLUMBIA       SUNNY     78  74  87 S6        29.95R
JEFFERSON CITY SUNNY     78  74  87 E3        29.94R
ROLLA          SUNNY     78  74  87 S8        29.97R
OSAGE BEACH    SUNNY     81  73  78 SW8       29.97R
SPRINGFIELD    SUNNY     80  72  76 S9        29.98R
BRANSON        SUNNY     81  72  74 CALM      30.01S
JOPLIN         SUNNY     82  72  71 S10       29.96R
WEST PLAINS    SUNNY     80  74  81 CALM      30.02R

$$

IAZ060-094-KSZ022-034>040-054-083-096-NEZ052-066-093-281400-
...KANSAS...SOUTHEAST NEBRASKA AND IOWA...

CITY           SKY/WX    TMP DP  RH WIND       PRES   REMARKS
TOPEKA         SUNNY     82  73  74 S7        29.86R
MANHATTAN      SUNNY     82  71  69 S9        29.82R
EMPORIA        SUNNY     79  71  76 S13       29.88R
CHANUTE        SUNNY     81  74  79 S9        29.92R
WICHITA        SUNNY     80  69  69 S14       29.88S
OMAHA          TSTM      77  73  87 NE12      29.88R
LINCOLN        MOSUNNY   78  72  81 N7        29.82R
FALLS CITY     SUNNY     80  74  81 S9        29.84R
LAMONI         SUNNY     76  72  87 S10       29.89R
DES MOINES     PTSUNNY   76  71  85 S13       29.87R

$$



USA.gov is the U.S. government's official web portal to all federal, state and local government web resources and services.